owner,sensor,date,latitude,longitude,vertical_datum,sea_water_practical_salinity,qcFlag 
SCCF RECON,ioos:station:SCCF:56:1,2017-09-01T00:00:00Z,26.4645,-82.1044,1.49,18.02,1111122 
SCCF RECON,ioos:station:SCCF:56:1,2017-09-01T01:00:00Z,26.4645,-82.1044,1.586,18.42,1111122 
SCCF RECON,ioos:station:SCCF:56:1,2017-09-01T02:00:00Z,26.4645,-82.1044,1.661,18.38,1111122 
SCCF RECON,ioos:station:SCCF:56:1,2017-09-01T03:00:00Z,26.4645,-82.1044,1.74,18.29,1111122 
SCCF RECON,ioos:station:SCCF:56:1,2017-09-01T04:00:00Z,26.4645,-82.1044,1.765,16.46,1111122 
SCCF RECON,ioos:station:SCCF:56:1,2017-09-01T05:00:00Z,26.4645,-82.1044,1.76,17.7,1111122 
SCCF RECON,ioos:station:SCCF:56:1,2017-09-01T06:00:00Z,26.4645,-82.1044,1.728,18.25,1111122 
SCCF RECON,ioos:station:SCCF:56:1,2017-09-01T07:00:00Z,26.4645,-82.1044,1.64,17.57,1111122 
SCCF RECON,ioos:station:SCCF:56:1,2017-09-01T08:00:00Z,26.4645,-82.1044,1.6,18.13,1111122 
SCCF RECON,ioos:station:SCCF:56:1,2017-09-01T09:00:00Z,26.4645,-82.1044,1.63,18.17,1111122 
SCCF RECON,ioos:station:SCCF:56:1,2017-09-01T10:00:00Z,26.4645,-82.1044,1.692,15.58,1111122 
SCCF RECON,ioos:station:SCCF:56:1,2017-09-01T11:00:00Z,26.4645,-82.1044,1.76,15.73,1111122 
SCCF RECON,ioos:station:SCCF:56:1,2017-09-01T12:00:00Z,26.4645,-82.1044,1.87,16.45,1111122 
SCCF RECON,ioos:station:SCCF:56:1,2017-09-01T13:00:00Z,26.4645,-82.1044,1.95,16.92,1111122 
SCCF RECON,ioos:station:SCCF:56:1,2017-09-01T14:00:00Z,26.4645,-82.1044,1.95,17.79,1111122 
SCCF RECON,ioos:station:SCCF:56:1,2017-09-01T15:00:00Z,26.4645,-82.1044,1.889,17.98,1111122 
SCCF RECON,ioos:station:SCCF:56:1,2017-09-01T16:00:00Z,26.4645,-82.1044,1.806,17.03,1111122 
SCCF RECON,ioos:station:SCCF:56:1,2017-09-01T17:00:00Z,26.4645,-82.1044,1.728,17.08,1111122 
SCCF RECON,ioos:station:SCCF:56:1,2017-09-01T18:00:00Z,26.4645,-82.1044,1.64,17.32,1111122 
SCCF RECON,ioos:station:SCCF:56:1,2017-09-01T19:00:00Z,26.4645,-82.1044,1.54,17.66,1111122 
SCCF RECON,ioos:station:SCCF:56:1,2017-09-01T20:00:00Z,26.4645,-82.1044,1.43,17.96,1111122 
SCCF RECON,ioos:station:SCCF:56:1,2017-09-01T21:00:00Z,26.4645,-82.1044,1.329,18.23,1111122 
SCCF RECON,ioos:station:SCCF:56:1,2017-09-01T22:00:00Z,26.4645,-82.1044,1.26,18.42,1111122 
SCCF RECON,ioos:station:SCCF:56:1,2017-09-01T23:00:00Z,26.4645,-82.1044,1.399,18.27,1111122 
SCCF RECON,ioos:station:SCCF:56:1,2017-09-02T00:00:00Z,26.4645,-82.1044,1.528,19.63,1111122 
SCCF RECON,ioos:station:SCCF:56:1,2017-09-02T01:00:00Z,26.4645,-82.1044,1.649,19.12,1111122 
SCCF RECON,ioos:station:SCCF:56:1,2017-09-02T02:00:00Z,26.4645,-82.1044,1.72,18.73,1111122 
SCCF RECON,ioos:station:SCCF:56:1,2017-09-02T03:00:00Z,26.4645,-82.1044,1.8,18.65,1111122 
SCCF RECON,ioos:station:SCCF:56:1,2017-09-02T04:00:00Z,26.4645,-82.1044,1.863,18.65,1111122 
SCCF RECON,ioos:station:SCCF:56:1,2017-09-02T05:00:00Z,26.4645,-82.1044,1.821,18.52,1111122 
SCCF RECON,ioos:station:SCCF:56:1,2017-09-02T06:00:00Z,26.4645,-82.1044,1.72,18.68,1111122 
SCCF RECON,ioos:station:SCCF:56:1,2017-09-02T07:00:00Z,26.4645,-82.1044,1.64,18.82,1111122 
SCCF RECON,ioos:station:SCCF:56:1,2017-09-02T08:00:00Z,26.4645,-82.1044,1.57,18.97,1111122 
SCCF RECON,ioos:station:SCCF:56:1,2017-09-02T09:00:00Z,26.4645,-82.1044,1.52,18.91,1111122 
SCCF RECON,ioos:station:SCCF:56:1,2017-09-02T10:00:00Z,26.4645,-82.1044,1.59,18.76,1111122 
SCCF RECON,ioos:station:SCCF:56:1,2017-09-02T11:00:00Z,26.4645,-82.1044,1.68,18.37,1111122 
SCCF RECON,ioos:station:SCCF:56:1,2017-09-02T12:00:00Z,26.4645,-82.1044,1.74,18.63,1111122 
SCCF RECON,ioos:station:SCCF:56:1,2017-09-02T13:00:00Z,26.4645,-82.1044,1.79,18.79,1111122 
SCCF RECON,ioos:station:SCCF:56:1,2017-09-02T14:00:00Z,26.4645,-82.1044,1.85,18.95,1111122 
SCCF RECON,ioos:station:SCCF:56:1,2017-09-02T15:00:00Z,26.4645,-82.1044,1.93,19.03,1111122 
SCCF RECON,ioos:station:SCCF:56:1,2017-09-02T16:00:00Z,26.4645,-82.1044,1.94,18.92,1111122 
SCCF RECON,ioos:station:SCCF:56:1,2017-09-02T17:00:00Z,26.4645,-82.1044,1.839,18.94,1111122 
SCCF RECON,ioos:station:SCCF:56:1,2017-09-02T18:00:00Z,26.4645,-82.1044,1.71,18.88,1111122 
SCCF RECON,ioos:station:SCCF:56:1,2017-09-02T19:00:00Z,26.4645,-82.1044,1.572,18.85,1111122 
SCCF RECON,ioos:station:SCCF:56:1,2017-09-02T20:00:00Z,26.4645,-82.1044,1.462,18.87,1111122 
SCCF RECON,ioos:station:SCCF:56:1,2017-09-02T21:00:00Z,26.4645,-82.1044,1.36,18.9,1111122 
SCCF RECON,ioos:station:SCCF:56:1,2017-09-02T22:00:00Z,26.4645,-82.1044,1.28,18.97,1111122 
SCCF RECON,ioos:station:SCCF:56:1,2017-09-02T23:00:00Z,26.4645,-82.1044,1.28,18.95,1111122 
SCCF RECON,ioos:station:SCCF:56:1,2017-09-03T00:00:00Z,26.4645,-82.1044,1.34,18.93,1111122 
SCCF RECON,ioos:station:SCCF:56:1,2017-09-03T01:00:00Z,26.4645,-82.1044,1.43,18.87,1111122 
SCCF RECON,ioos:station:SCCF:56:1,2017-09-03T02:00:00Z,26.4645,-82.1044,1.62,19.53,1111122 
SCCF RECON,ioos:station:SCCF:56:1,2017-09-03T03:00:00Z,26.4645,-82.1044,1.741,19.77,1111122 
SCCF RECON,ioos:station:SCCF:56:1,2017-09-03T04:00:00Z,26.4645,-82.1044,1.77,19.76,1111122 
SCCF RECON,ioos:station:SCCF:56:1,2017-09-03T05:00:00Z,26.4645,-82.1044,1.77,19.77,1111122 
SCCF RECON,ioos:station:SCCF:56:1,2017-09-03T06:00:00Z,26.4645,-82.1044,1.76,19.75,1111122 
SCCF RECON,ioos:station:SCCF:56:1,2017-09-03T07:00:00Z,26.4645,-82.1044,1.67,19.37,1111122 
SCCF RECON,ioos:station:SCCF:56:1,2017-09-03T08:00:00Z,26.4645,-82.1044,1.59,19.55,1111122 
SCCF RECON,ioos:station:SCCF:56:1,2017-09-03T09:00:00Z,26.4645,-82.1044,1.54,19.31,1111122 
SCCF RECON,ioos:station:SCCF:56:1,2017-09-03T10:00:00Z,26.4645,-82.1044,1.54,19.25,1111122 
SCCF RECON,ioos:station:SCCF:56:1,2017-09-03T11:00:00Z,26.4645,-82.1044,1.59,19.27,1111122 
SCCF RECON,ioos:station:SCCF:56:1,2017-09-03T12:00:00Z,26.4645,-82.1044,1.67,18.06,1111122 
SCCF RECON,ioos:station:SCCF:56:1,2017-09-03T13:00:00Z,26.4645,-82.1044,1.789,18.45,1111122 
SCCF RECON,ioos:station:SCCF:56:1,2017-09-03T14:00:00Z,26.4645,-82.1044,1.88,18.65,1111122 
SCCF RECON,ioos:station:SCCF:56:1,2017-09-03T15:00:00Z,26.4645,-82.1044,1.95,18.83,1111122 
SCCF RECON,ioos:station:SCCF:56:1,2017-09-03T16:00:00Z,26.4645,-82.1044,1.959,18.56,1111122 
SCCF RECON,ioos:station:SCCF:56:1,2017-09-03T17:00:00Z,26.4645,-82.1044,1.896,18.76,1111122 
SCCF RECON,ioos:station:SCCF:56:1,2017-09-03T18:00:00Z,26.4645,-82.1044,1.76,18.74,1111122 
SCCF RECON,ioos:station:SCCF:56:1,2017-09-03T19:00:00Z,26.4645,-82.1044,1.623,18.81,1111122 
SCCF RECON,ioos:station:SCCF:56:1,2017-09-03T20:00:00Z,26.4645,-82.1044,1.489,18.89,1111122 
SCCF RECON,ioos:station:SCCF:56:1,2017-09-03T21:00:00Z,26.4645,-82.1044,1.351,18.95,1111122 
SCCF RECON,ioos:station:SCCF:56:1,2017-09-03T22:00:00Z,26.4645,-82.1044,1.25,18.95,1111122 
SCCF RECON,ioos:station:SCCF:56:1,2017-09-03T23:00:00Z,26.4645,-82.1044,1.18,18.96,1111122 
SCCF RECON,ioos:station:SCCF:56:1,2017-09-04T00:00:00Z,26.4645,-82.1044,1.21,18.96,1111122 
SCCF RECON,ioos:station:SCCF:56:1,2017-09-04T01:00:00Z,26.4645,-82.1044,1.35,18.98,1111122 
SCCF RECON,ioos:station:SCCF:56:1,2017-09-04T02:00:00Z,26.4645,-82.1044,1.544,19.04,1111122 
SCCF RECON,ioos:station:SCCF:56:1,2017-09-04T03:00:00Z,26.4645,-82.1044,1.67,19.16,1111122 
SCCF RECON,ioos:station:SCCF:56:1,2017-09-04T04:00:00Z,26.4645,-82.1044,1.76,19.51,1111122 
SCCF RECON,ioos:station:SCCF:56:1,2017-09-04T05:00:00Z,26.4645,-82.1044,1.83,19.45,1111122 
SCCF RECON,ioos:station:SCCF:56:1,2017-09-04T06:00:00Z,26.4645,-82.1044,1.79,19.21,1111122 
SCCF RECON,ioos:station:SCCF:56:1,2017-09-04T07:00:00Z,26.4645,-82.1044,1.72,19.23,1111122 
SCCF RECON,ioos:station:SCCF:56:1,2017-09-04T08:00:00Z,26.4645,-82.1044,1.63,19.21,1111122 
SCCF RECON,ioos:station:SCCF:56:1,2017-09-04T09:00:00Z,26.4645,-82.1044,1.572,19.17,1111122 
SCCF RECON,ioos:station:SCCF:56:1,2017-09-04T10:00:00Z,26.4645,-82.1044,1.54,19.15,1111122 
SCCF RECON,ioos:station:SCCF:56:1,2017-09-04T11:00:00Z,26.4645,-82.1044,1.54,19.15,1111122 
SCCF RECON,ioos:station:SCCF:56:1,2017-09-04T12:00:00Z,26.4645,-82.1044,1.61,19.17,1111122 
SCCF RECON,ioos:station:SCCF:56:1,2017-09-04T13:00:00Z,26.4645,-82.1044,1.732,18.46,1111122 
SCCF RECON,ioos:station:SCCF:56:1,2017-09-04T14:00:00Z,26.4645,-82.1044,1.87,18.28,1111122 
SCCF RECON,ioos:station:SCCF:56:1,2017-09-04T15:00:00Z,26.4645,-82.1044,1.968,18.32,1111122 
SCCF RECON,ioos:station:SCCF:56:1,2017-09-04T16:00:00Z,26.4645,-82.1044,2.02,18.34,1111122 
SCCF RECON,ioos:station:SCCF:56:1,2017-09-04T17:00:00Z,26.4645,-82.1044,2.01,18.38,1111122 
SCCF RECON,ioos:station:SCCF:56:1,2017-09-04T18:00:00Z,26.4645,-82.1044,1.93,18.45,1111122 
SCCF RECON,ioos:station:SCCF:56:1,2017-09-04T19:00:00Z,26.4645,-82.1044,1.77,18.43,1111122 
SCCF RECON,ioos:station:SCCF:56:1,2017-09-04T20:00:00Z,26.4645,-82.1044,1.601,18.66,1111122 
SCCF RECON,ioos:station:SCCF:56:1,2017-09-04T21:00:00Z,26.4645,-82.1044,1.46,18.77,1111122 
SCCF RECON,ioos:station:SCCF:56:1,2017-09-04T22:00:00Z,26.4645,-82.1044,1.34,18.88,1111122 
SCCF RECON,ioos:station:SCCF:56:1,2017-09-04T23:00:00Z,26.4645,-82.1044,1.26,18.95,1111122 
SCCF RECON,ioos:station:SCCF:56:1,2017-09-05T00:00:00Z,26.4645,-82.1044,1.22,19.0,1111122 
SCCF RECON,ioos:station:SCCF:56:1,2017-09-05T01:00:00Z,26.4645,-82.1044,1.35,18.99,1111122 
SCCF RECON,ioos:station:SCCF:56:1,2017-09-05T02:00:00Z,26.4645,-82.1044,1.49,18.64,1111122 
SCCF RECON,ioos:station:SCCF:56:1,2017-09-05T03:00:00Z,26.4645,-82.1044,1.63,18.54,1111122 
SCCF RECON,ioos:station:SCCF:56:1,2017-09-05T04:00:00Z,26.4645,-82.1044,1.74,18.59,1111122 
SCCF RECON,ioos:station:SCCF:56:1,2017-09-05T05:00:00Z,26.4645,-82.1044,1.809,18.63,1111122 
SCCF RECON,ioos:station:SCCF:56:1,2017-09-05T06:00:00Z,26.4645,-82.1044,1.84,18.61,1111122 
SCCF RECON,ioos:station:SCCF:56:1,2017-09-05T07:00:00Z,26.4645,-82.1044,1.79,18.66,1111122 
SCCF RECON,ioos:station:SCCF:56:1,2017-09-05T08:00:00Z,26.4645,-82.1044,1.71,18.6,1111122 
SCCF RECON,ioos:station:SCCF:56:1,2017-09-05T09:00:00Z,26.4645,-82.1044,1.61,18.65,1111122 
SCCF RECON,ioos:station:SCCF:56:1,2017-09-05T10:00:00Z,26.4645,-82.1044,1.549,18.71,1111122 
SCCF RECON,ioos:station:SCCF:56:1,2017-09-05T11:00:00Z,26.4645,-82.1044,1.477,18.79,1111122 
SCCF RECON,ioos:station:SCCF:56:1,2017-09-05T12:00:00Z,26.4645,-82.1044,1.49,18.8,1111122 
SCCF RECON,ioos:station:SCCF:56:1,2017-09-05T13:00:00Z,26.4645,-82.1044,1.636,18.68,1111122 
SCCF RECON,ioos:station:SCCF:56:1,2017-09-05T14:00:00Z,26.4645,-82.1044,1.81,18.54,1111122 
SCCF RECON,ioos:station:SCCF:56:1,2017-09-05T15:00:00Z,26.4645,-82.1044,1.95,18.47,1111122 
SCCF RECON,ioos:station:SCCF:56:1,2017-09-05T16:00:00Z,26.4645,-82.1044,2.04,18.61,1111122 
SCCF RECON,ioos:station:SCCF:56:1,2017-09-05T17:00:00Z,26.4645,-82.1044,2.08,18.55,1111122 
SCCF RECON,ioos:station:SCCF:56:1,2017-09-05T18:00:00Z,26.4645,-82.1044,2.02,18.61,1111122 
SCCF RECON,ioos:station:SCCF:56:1,2017-09-05T19:00:00Z,26.4645,-82.1044,1.9,18.56,1111122 
SCCF RECON,ioos:station:SCCF:56:1,2017-09-05T20:00:00Z,26.4645,-82.1044,1.76,18.61,1111122 
SCCF RECON,ioos:station:SCCF:56:1,2017-09-05T21:00:00Z,26.4645,-82.1044,1.6,18.7,1111122 
SCCF RECON,ioos:station:SCCF:56:1,2017-09-05T22:00:00Z,26.4645,-82.1044,1.46,18.74,1111122 
SCCF RECON,ioos:station:SCCF:56:1,2017-09-05T23:00:00Z,26.4645,-82.1044,1.4,18.81,1111122 
SCCF RECON,ioos:station:SCCF:56:1,2017-09-06T00:00:00Z,26.4645,-82.1044,1.273,18.9,1111122 
SCCF RECON,ioos:station:SCCF:56:1,2017-09-06T01:00:00Z,26.4645,-82.1044,1.29,18.93,1111122 
SCCF RECON,ioos:station:SCCF:56:1,2017-09-06T02:00:00Z,26.4645,-82.1044,1.46,18.88,1111122 
SCCF RECON,ioos:station:SCCF:56:1,2017-09-06T03:00:00Z,26.4645,-82.1044,1.65,18.85,1111122 
SCCF RECON,ioos:station:SCCF:56:1,2017-09-06T04:00:00Z,26.4645,-82.1044,1.748,18.92,1111122 
SCCF RECON,ioos:station:SCCF:56:1,2017-09-06T05:00:00Z,26.4645,-82.1044,1.869,19.03,1111122 
SCCF RECON,ioos:station:SCCF:56:1,2017-09-06T06:00:00Z,26.4645,-82.1044,1.92,19.23,1111122 
SCCF RECON,ioos:station:SCCF:56:1,2017-09-06T07:00:00Z,26.4645,-82.1044,1.84,18.9,1111122 
SCCF RECON,ioos:station:SCCF:56:1,2017-09-06T08:00:00Z,26.4645,-82.1044,1.81,19.04,1111122 
SCCF RECON,ioos:station:SCCF:56:1,2017-09-06T09:00:00Z,26.4645,-82.1044,1.67,18.99,1111122 
SCCF RECON,ioos:station:SCCF:56:1,2017-09-06T10:00:00Z,26.4645,-82.1044,1.562,18.98,1111122 
SCCF RECON,ioos:station:SCCF:56:1,2017-09-06T11:00:00Z,26.4645,-82.1044,1.482,18.99,1111122 
SCCF RECON,ioos:station:SCCF:56:1,2017-09-06T12:00:00Z,26.4645,-82.1044,1.48,18.98,1111122 
SCCF RECON,ioos:station:SCCF:56:1,2017-09-06T13:00:00Z,26.4645,-82.1044,1.57,19.0,1111122 
SCCF RECON,ioos:station:SCCF:56:1,2017-09-06T14:00:00Z,26.4645,-82.1044,1.73,19.16,1111122 
SCCF RECON,ioos:station:SCCF:56:1,2017-09-06T15:00:00Z,26.4645,-82.1044,1.89,19.63,1111122 
SCCF RECON,ioos:station:SCCF:56:1,2017-09-06T16:00:00Z,26.4645,-82.1044,2.01,19.79,1111122 
SCCF RECON,ioos:station:SCCF:56:1,2017-09-06T17:00:00Z,26.4645,-82.1044,2.1,19.8,1111122 
SCCF RECON,ioos:station:SCCF:56:1,2017-09-06T18:00:00Z,26.4645,-82.1044,2.13,19.79,1111122 
SCCF RECON,ioos:station:SCCF:56:1,2017-09-06T19:00:00Z,26.4645,-82.1044,2.055,19.55,1111122 
SCCF RECON,ioos:station:SCCF:56:1,2017-09-06T20:00:00Z,26.4645,-82.1044,1.906,19.61,1111122 
SCCF RECON,ioos:station:SCCF:56:1,2017-09-06T21:00:00Z,26.4645,-82.1044,1.758,19.49,1111122 
SCCF RECON,ioos:station:SCCF:56:1,2017-09-06T22:00:00Z,26.4645,-82.1044,1.61,19.41,1111122 
SCCF RECON,ioos:station:SCCF:56:1,2017-09-06T23:00:00Z,26.4645,-82.1044,1.49,19.32,1111122 
SCCF RECON,ioos:station:SCCF:56:1,2017-09-07T00:00:00Z,26.4645,-82.1044,1.38,19.27,1111122 
SCCF RECON,ioos:station:SCCF:56:1,2017-09-07T01:00:00Z,26.4645,-82.1044,1.33,19.26,1111122 
SCCF RECON,ioos:station:SCCF:56:1,2017-09-07T02:00:00Z,26.4645,-82.1044,1.436,19.26,1111122 
SCCF RECON,ioos:station:SCCF:56:1,2017-09-07T03:00:00Z,26.4645,-82.1044,1.617,19.87,1111122 
SCCF RECON,ioos:station:SCCF:56:1,2017-09-07T04:00:00Z,26.4645,-82.1044,1.76,20.49,1111122 
SCCF RECON,ioos:station:SCCF:56:1,2017-09-07T05:00:00Z,26.4645,-82.1044,1.867,20.3,1111122 
SCCF RECON,ioos:station:SCCF:56:1,2017-09-07T06:00:00Z,26.4645,-82.1044,1.92,20.45,1111122 
SCCF RECON,ioos:station:SCCF:56:1,2017-09-07T07:00:00Z,26.4645,-82.1044,1.95,20.46,1111122 
SCCF RECON,ioos:station:SCCF:56:1,2017-09-07T08:00:00Z,26.4645,-82.1044,1.86,20.03,1111122 
SCCF RECON,ioos:station:SCCF:56:1,2017-09-07T09:00:00Z,26.4645,-82.1044,1.71,20.35,1111122 
SCCF RECON,ioos:station:SCCF:56:1,2017-09-07T10:00:00Z,26.4645,-82.1044,1.59,20.19,1111122 
SCCF RECON,ioos:station:SCCF:56:1,2017-09-07T11:00:00Z,26.4645,-82.1044,1.48,19.94,1111122 
SCCF RECON,ioos:station:SCCF:56:1,2017-09-07T12:00:00Z,26.4645,-82.1044,1.381,19.79,1111122 
SCCF RECON,ioos:station:SCCF:56:1,2017-09-07T13:00:00Z,26.4645,-82.1044,1.341,19.7,1111122 
SCCF RECON,ioos:station:SCCF:56:1,2017-09-07T14:00:00Z,26.4645,-82.1044,1.456,19.79,1111122 
SCCF RECON,ioos:station:SCCF:56:1,2017-09-07T15:00:00Z,26.4645,-82.1044,1.683,20.15,1111122 
SCCF RECON,ioos:station:SCCF:56:1,2017-09-07T16:00:00Z,26.4645,-82.1044,1.86,20.4,1111122 
SCCF RECON,ioos:station:SCCF:56:1,2017-09-07T17:00:00Z,26.4645,-82.1044,1.968,20.47,1111122 
SCCF RECON,ioos:station:SCCF:56:1,2017-09-07T18:00:00Z,26.4645,-82.1044,2.04,20.54,1111122 
SCCF RECON,ioos:station:SCCF:56:1,2017-09-07T19:00:00Z,26.4645,-82.1044,2.02,20.45,1111122 
SCCF RECON,ioos:station:SCCF:56:1,2017-09-07T20:00:00Z,26.4645,-82.1044,1.923,20.49,1111122 
SCCF RECON,ioos:station:SCCF:56:1,2017-09-07T21:00:00Z,26.4645,-82.1044,1.78,20.4,1111122 
SCCF RECON,ioos:station:SCCF:56:1,2017-09-07T22:00:00Z,26.4645,-82.1044,1.64,20.32,1111122 
SCCF RECON,ioos:station:SCCF:56:1,2017-09-07T23:00:00Z,26.4645,-82.1044,1.537,20.21,1111122 
SCCF RECON,ioos:station:SCCF:56:1,2017-09-08T00:00:00Z,26.4645,-82.1044,1.45,20.14,1111122 
SCCF RECON,ioos:station:SCCF:56:1,2017-09-08T01:00:00Z,26.4645,-82.1044,1.377,20.07,1111122 
SCCF RECON,ioos:station:SCCF:56:1,2017-09-08T02:00:00Z,26.4645,-82.1044,1.361,20.02,1111122 
SCCF RECON,ioos:station:SCCF:56:1,2017-09-08T03:00:00Z,26.4645,-82.1044,1.47,20.12,1111122 
SCCF RECON,ioos:station:SCCF:56:1,2017-09-08T04:00:00Z,26.4645,-82.1044,1.634,20.4,1111122 
SCCF RECON,ioos:station:SCCF:56:1,2017-09-08T05:00:00Z,26.4645,-82.1044,1.779,20.54,1111122 
SCCF RECON,ioos:station:SCCF:56:1,2017-09-08T06:00:00Z,26.4645,-82.1044,1.86,20.79,1111122 
SCCF RECON,ioos:station:SCCF:56:1,2017-09-08T07:00:00Z,26.4645,-82.1044,1.899,20.74,1111122 
SCCF RECON,ioos:station:SCCF:56:1,2017-09-08T08:00:00Z,26.4645,-82.1044,1.872,20.69,1111122 
SCCF RECON,ioos:station:SCCF:56:1,2017-09-08T09:00:00Z,26.4645,-82.1044,1.74,20.72,1111122 
SCCF RECON,ioos:station:SCCF:56:1,2017-09-08T10:00:00Z,26.4645,-82.1044,1.65,20.62,1111122 
SCCF RECON,ioos:station:SCCF:56:1,2017-09-08T11:00:00Z,26.4645,-82.1044,1.519,20.52,1111122 
SCCF RECON,ioos:station:SCCF:56:1,2017-09-08T12:00:00Z,26.4645,-82.1044,1.39,20.39,1111122 
SCCF RECON,ioos:station:SCCF:56:1,2017-09-08T13:00:00Z,26.4645,-82.1044,1.306,20.27,1111122 
SCCF RECON,ioos:station:SCCF:56:1,2017-09-08T14:00:00Z,26.4645,-82.1044,1.31,20.25,1111122 
SCCF RECON,ioos:station:SCCF:56:1,2017-09-08T15:00:00Z,26.4645,-82.1044,1.456,20.41,1111122 
SCCF RECON,ioos:station:SCCF:56:1,2017-09-08T16:00:00Z,26.4645,-82.1044,1.65,20.31,1111122 
SCCF RECON,ioos:station:SCCF:56:1,2017-09-08T17:00:00Z,26.4645,-82.1044,1.788,20.14,1111122 
SCCF RECON,ioos:station:SCCF:56:1,2017-09-08T18:00:00Z,26.4645,-82.1044,1.882,20.06,1111122 
SCCF RECON,ioos:station:SCCF:56:1,2017-09-08T19:00:00Z,26.4645,-82.1044,1.931,20.11,1111122 
SCCF RECON,ioos:station:SCCF:56:1,2017-09-08T20:00:00Z,26.4645,-82.1044,1.915,20.17,1111122 
SCCF RECON,ioos:station:SCCF:56:1,2017-09-08T21:00:00Z,26.4645,-82.1044,1.796,20.06,1111122 
SCCF RECON,ioos:station:SCCF:56:1,2017-09-08T22:00:00Z,26.4645,-82.1044,1.64,20.09,1111122 
SCCF RECON,ioos:station:SCCF:56:1,2017-09-08T23:00:00Z,26.4645,-82.1044,1.51,20.12,1111122 
SCCF RECON,ioos:station:SCCF:56:1,2017-09-09T00:00:00Z,26.4645,-82.1044,1.39,20.13,1111122 
SCCF RECON,ioos:station:SCCF:56:1,2017-09-09T01:00:00Z,26.4645,-82.1044,1.302,20.1,1111122 
SCCF RECON,ioos:station:SCCF:56:1,2017-09-09T02:00:00Z,26.4645,-82.1044,1.221,20.09,1111122 
SCCF RECON,ioos:station:SCCF:56:1,2017-09-09T03:00:00Z,26.4645,-82.1044,1.25,20.07,1111122 
SCCF RECON,ioos:station:SCCF:56:1,2017-09-09T04:00:00Z,26.4645,-82.1044,1.373,19.36,1111122 
SCCF RECON,ioos:station:SCCF:56:1,2017-09-09T05:00:00Z,26.4645,-82.1044,1.548,19.38,1111122 
SCCF RECON,ioos:station:SCCF:56:1,2017-09-09T06:00:00Z,26.4645,-82.1044,1.689,19.38,1111122 
SCCF RECON,ioos:station:SCCF:56:1,2017-09-09T07:00:00Z,26.4645,-82.1044,1.766,19.38,1111122 
SCCF RECON,ioos:station:SCCF:56:1,2017-09-09T08:00:00Z,26.4645,-82.1044,1.791,19.38,1111122 
SCCF RECON,ioos:station:SCCF:56:1,2017-09-09T09:00:00Z,26.4645,-82.1044,1.7,19.49,1111122 
SCCF RECON,ioos:station:SCCF:56:1,2017-09-09T10:00:00Z,26.4645,-82.1044,1.56,19.44,1111122 
SCCF RECON,ioos:station:SCCF:56:1,2017-09-09T11:00:00Z,26.4645,-82.1044,1.43,19.6,1111122 
SCCF RECON,ioos:station:SCCF:56:1,2017-09-09T12:00:00Z,26.4645,-82.1044,1.309,19.77,1111122 
SCCF RECON,ioos:station:SCCF:56:1,2017-09-09T13:00:00Z,26.4645,-82.1044,1.216,19.86,1111122 
SCCF RECON,ioos:station:SCCF:56:1,2017-09-09T14:00:00Z,26.4645,-82.1044,1.149,19.93,1111122 
SCCF RECON,ioos:station:SCCF:56:1,2017-09-09T15:00:00Z,26.4645,-82.1044,1.188,19.94,1111122 
SCCF RECON,ioos:station:SCCF:56:1,2017-09-09T16:00:00Z,26.4645,-82.1044,1.369,19.72,1111122 
SCCF RECON,ioos:station:SCCF:56:1,2017-09-09T17:00:00Z,26.4645,-82.1044,1.514,19.76,1111122 
SCCF RECON,ioos:station:SCCF:56:1,2017-09-09T18:00:00Z,26.4645,-82.1044,1.59,19.57,1111122 
SCCF RECON,ioos:station:SCCF:56:1,2017-09-09T19:00:00Z,26.4645,-82.1044,1.67,19.65,1111122 
SCCF RECON,ioos:station:SCCF:56:1,2017-09-09T20:00:00Z,26.4645,-82.1044,1.68,19.48,1111122 
SCCF RECON,ioos:station:SCCF:56:1,2017-09-09T21:00:00Z,26.4645,-82.1044,1.68,19.46,1111122 
SCCF RECON,ioos:station:SCCF:56:1,2017-09-09T22:00:00Z,26.4645,-82.1044,1.586,19.54,1111122 
SCCF RECON,ioos:station:SCCF:56:1,2017-09-09T23:00:00Z,26.4645,-82.1044,1.45,19.65,1111122 
SCCF RECON,ioos:station:SCCF:56:1,2017-09-10T00:00:00Z,26.4645,-82.1044,1.305,19.76,1111122 
SCCF RECON,ioos:station:SCCF:56:1,2017-09-10T01:00:00Z,26.4645,-82.1044,1.205,19.85,1111122 
SCCF RECON,ioos:station:SCCF:56:1,2017-09-10T02:00:00Z,26.4645,-82.1044,1.129,19.89,1111122 
SCCF RECON,ioos:station:SCCF:56:1,2017-09-10T03:00:00Z,26.4645,-82.1044,1.036,19.9,1111122 
SCCF RECON,ioos:station:SCCF:56:1,2017-09-10T04:00:00Z,26.4645,-82.1044,0.976,19.73,1111122 
SCCF RECON,ioos:station:SCCF:56:1,2017-09-10T05:00:00Z,26.4645,-82.1044,0.979,19.28,1111122 
SCCF RECON,ioos:station:SCCF:56:1,2017-09-10T06:00:00Z,26.4645,-82.1044,1.036,19.4,1111122 
SCCF RECON,ioos:station:SCCF:56:1,2017-09-10T07:00:00Z,26.4645,-82.1044,1.164,19.24,1111122 
SCCF RECON,ioos:station:SCCF:56:1,2017-09-10T08:00:00Z,26.4645,-82.1044,1.194,19.26,1111122 
SCCF RECON,ioos:station:SCCF:56:1,2017-09-10T09:00:00Z,26.4645,-82.1044,1.122,19.29,1111122 
SCCF RECON,ioos:station:SCCF:56:1,2017-09-10T10:00:00Z,26.4645,-82.1044,0.987,19.37,1111122 
SCCF RECON,ioos:station:SCCF:56:1,2017-09-10T11:00:00Z,26.4645,-82.1044,0.879,19.4,1111122 
SCCF RECON,ioos:station:SCCF:56:1,2017-09-10T12:00:00Z,26.4645,-82.1044,0.695,19.37,1111122 
SCCF RECON,ioos:station:SCCF:56:1,2017-09-10T13:00:00Z,26.4645,-82.1044,0.585,19.29,1111122 
SCCF RECON,ioos:station:SCCF:56:1,2017-09-10T14:00:00Z,26.4645,-82.1044,0.516,18.91,1111122 
SCCF RECON,ioos:station:SCCF:56:1,2017-09-10T15:00:00Z,26.4645,-82.1044,0.461,18.46,1111122 
SCCF RECON,ioos:station:SCCF:56:1,2017-09-10T16:00:00Z,26.4645,-82.1044,0.413,17.95,1111122 
SCCF RECON,ioos:station:SCCF:56:1,2017-09-10T17:00:00Z,26.4645,-82.1044,0.385,17.3,1111122 
SCCF RECON,ioos:station:SCCF:56:1,2017-09-10T18:00:00Z,26.4645,-82.1044,0.363,15.96,1111122 
SCCF RECON,ioos:station:SCCF:56:1,2017-09-10T19:00:00Z,26.4645,-82.1044,0.433,14.75,1111122 
SCCF RECON,ioos:station:SCCF:56:1,2017-09-10T20:00:00Z,26.4645,-82.1044,0.42,12.51,1111122 
SCCF RECON,ioos:station:SCCF:56:1,2017-09-10T21:00:00Z,26.4645,-82.1044,0.457,10.31,1111122 
SCCF RECON,ioos:station:SCCF:56:1,2017-09-10T22:00:00Z,26.4645,-82.1044,0.428,8.61,1111122 
SCCF RECON,ioos:station:SCCF:56:1,2017-09-10T23:00:00Z,26.4645,-82.1044,0.463,7.7,1111122 
SCCF RECON,ioos:station:SCCF:56:1,2017-09-11T00:00:00Z,26.4645,-82.1044,1.125,20.43,1111122 
SCCF RECON,ioos:station:SCCF:56:1,2017-09-11T01:00:00Z,26.4645,-82.1044,1.492,25.14,1111122 
SCCF RECON,ioos:station:SCCF:56:1,2017-09-11T02:00:00Z,26.4645,-82.1044,1.66,25.08,1111122 
SCCF RECON,ioos:station:SCCF:56:1,2017-09-11T03:00:00Z,26.4645,-82.1044,1.839,24.87,1111122 
SCCF RECON,ioos:station:SCCF:56:1,2017-09-11T04:00:00Z,26.4645,-82.1044,1.959,21.01,1111122 
SCCF RECON,ioos:station:SCCF:56:1,2017-09-11T05:00:00Z,26.4645,-82.1044,2.073,18.01,1111122 
SCCF RECON,ioos:station:SCCF:56:1,2017-09-11T06:00:00Z,26.4645,-82.1044,2.074,20.32,1111122 
SCCF RECON,ioos:station:SCCF:56:1,2017-09-11T07:00:00Z,26.4645,-82.1044,2.131,19.16,1111122 
SCCF RECON,ioos:station:SCCF:56:1,2017-09-11T08:00:00Z,26.4645,-82.1044,2.091,20.01,1111122 
SCCF RECON,ioos:station:SCCF:56:1,2017-09-11T09:00:00Z,26.4645,-82.1044,2.0,21.56,1111122 
SCCF RECON,ioos:station:SCCF:56:1,2017-09-11T10:00:00Z,26.4645,-82.1044,2.01,21.22,1111122 
SCCF RECON,ioos:station:SCCF:56:1,2017-09-11T11:00:00Z,26.4645,-82.1044,2.05,20.54,1111122 
SCCF RECON,ioos:station:SCCF:56:1,2017-09-11T12:00:00Z,26.4645,-82.1044,1.98,20.74,1111122 
SCCF RECON,ioos:station:SCCF:56:1,2017-09-11T13:00:00Z,26.4645,-82.1044,1.89,21.28,1111122 
SCCF RECON,ioos:station:SCCF:56:1,2017-09-11T14:00:00Z,26.4645,-82.1044,1.81,21.1,1111122 
SCCF RECON,ioos:station:SCCF:56:1,2017-09-11T15:00:00Z,26.4645,-82.1044,1.717,20.71,1111122 
SCCF RECON,ioos:station:SCCF:56:1,2017-09-11T16:00:00Z,26.4645,-82.1044,1.658,20.01,1111122 
SCCF RECON,ioos:station:SCCF:56:1,2017-09-11T17:00:00Z,26.4645,-82.1044,1.747,19.83,1111122 
SCCF RECON,ioos:station:SCCF:56:1,2017-09-11T18:00:00Z,26.4645,-82.1044,1.87,22.24,1111122 